#timestamp,LO_Frequency,Hit,StdDev 
1641758415.0,286047001.9,N
1641758415.9,286047001.9,N
1641758465.8,286047002.7,E
1641758475.7,286047000.9,N
1641758495.6,286047000.8,P
1641758515.4,286047001.2,P
1641758535.2,286046998.6,Y
1641758555.1,286046997.2,P
1641758556.0,286046997.2,N
1641758575.8,286046997.8,N
1641758595.6,286046997.2,N
1641758615.5,286046997.3,N
1641758635.3,286046999.6,N
1641758655.2,286046999.4,N
1641758675.9,286046998.1,N
1641758695.7,286047000.6,N
1641758715.6,286047000.6,N
1641758735.4,286047000.9,N
1641758755.3,286046998.2,N
1641758775.1,286046998.1,N
1641758776.0,286046998.1,N
1641758795.8,286046998.3,N
1641758815.7,286047000.6,N
1641758835.5,286047000.0,N
1641758855.3,286047000.7,N
1641758875.2,286047001.1,N
1641758895.0,286046999.3,N
1641758895.9,286046999.3,N
1641758915.8,286046996.7,N
1641758935.6,286046998.8,N
1641758955.4,286046998.6,N
1641758975.3,286046998.1,N
1641758995.1,286047001.2,N
1641759015.9,286046998.6,N
1641759035.7,286047001.1,N
1641759055.5,286046998.5,N
1641759075.4,286047000.0,N
1641759095.2,286047002.7,N
1641759115.0,286047002.7,N
1641759115.9,286047002.7,N
1641759135.8,286047002.2,N
1641759155.6,286047002.7,N
1641759175.5,286047002.6,N
1641759195.3,286047002.2,N
1641759215.1,286047001.8,N
1641759235.9,286047002.7,N
1641759255.7,286047000.2,N
1641759275.5,286047002.7,N
1641759295.4,286046998.1,N
1641759315.2,286046998.4,N
1641759335.1,286047000.7,N
1641759336.0,286047000.7,N
1641759355.8,286047001.2,N
1641759375.6,286046998.3,N
1641759395.5,286046998.3,N
1641759415.3,286047000.9,N
1641759435.1,286046998.1,N
1641759455.9,286047000.8,N
1641759475.7,286047000.7,N
1641759495.6,286047001.2,N
1641759515.4,286046996.9,N
1641759535.2,286046998.3,N
1641759555.1,286046999.3,N
1641759556.0,286046999.3,N
1641759575.8,286046999.3,N
1641759595.7,286046998.2,N
1641759615.5,286047001.1,N
1641759635.3,286046998.6,N
1641759655.2,286047000.5,N
1641759675.0,286046998.7,N
1641759675.9,286046998.7,N
1641759695.7,286046998.5,N
1641759715.6,286046998.5,N
1641759735.4,286047000.6,N
1641759755.3,286047001.1,N
1641759775.1,286046999.6,N
1641759776.0,286046999.6,N
1641759795.8,286046998.2,N
1641759815.7,286046996.8,N
1641759835.5,286046999.0,N
1641759855.4,286046999.1,N
1641759875.2,286046996.6,N
1641759895.0,286047001.0,N
1641759895.9,286047001.0,N
1641759915.8,286047000.9,N
1641759935.6,286047001.2,N
1641759955.4,286046998.2,N
1641759975.3,286046998.6,N
1641759995.1,286046998.2,N
1641760015.9,286047000.1,N
1641760035.7,286047000.2,N
1641760055.5,286046999.7,N
1641760075.4,286046999.9,N
1641760095.2,286047000.1,N
1641760115.0,286047001.0,N
1641760146.0,286047001.1,E
1641760155.0,286046998.9,N
1641760155.9,286046998.9,P
1641760175.7,286046998.9,P
1641760195.6,286047001.2,Y
1641760215.4,286047002.7,P
1641760235.3,286047000.3,N
1641760255.1,286046999.8,N
1641760256.0,286046999.8,N
1641760275.8,286047000.2,N
1641760295.7,286047000.5,N
1641760315.5,286046999.9,N
1641760335.3,286046999.9,N
1641760355.2,286047000.8,N
1641760375.0,286047000.9,N
1641760375.9,286047000.9,N
1641760395.8,286047000.3,N
1641760415.6,286047001.0,N
1641760435.4,286047000.8,N
1641760455.3,286046998.3,N
1641760475.1,286047002.8,N
1641760495.9,286047001.0,N
1641760515.7,286047000.7,N
1641760535.5,286047000.5,N
1641760555.4,286047001.1,N
1641760575.2,286047000.0,N
1641760595.0,286046998.6,N
1641760595.9,286046998.6,N
1641760615.8,286047001.0,N
1641760635.6,286047000.8,N
1641760655.5,286047000.7,N
1641760675.3,286046998.1,N
1641760695.1,286046999.5,N
1641760715.9,286046998.2,N
1641760735.7,286046999.3,N
1641760755.5,286047001.2,N
1641760775.4,286047000.8,N
1641760795.2,286046998.7,N
1641760815.1,286046997.1,N
1641760816.0,286046997.1,N
1641760835.8,286046996.6,N
1641760855.6,286046999.6,N
1641760875.5,286046998.3,N
1641760895.3,286047001.0,N
1641760915.2,286047000.5,N
1641760935.9,286046998.2,N
1641760955.7,286046998.2,N
1641760975.6,286047001.0,N
1641760995.4,286046999.7,N
1641761015.2,286047002.8,N
1641761035.1,286047002.3,N
1641761036.0,286047002.3,N
1641761055.8,286046999.7,N
1641761075.7,286046999.7,N
1641761095.5,286047000.2,N
1641761115.3,286046999.8,N
1641761135.2,286047000.6,N
1641761155.0,286047000.3,N
1641761155.9,286047000.3,N
1641761175.7,286046999.8,N
1641761195.6,286047002.0,N
1641761215.4,286047002.1,N
1641761235.3,286047001.3,N
1641761255.1,286047001.9,N
1641761256.0,286047001.9,N
1641761275.8,286047001.9,N
1641761295.7,286047002.1,N
1641761315.5,286047002.0,N
1641761335.4,286047002.1,N
1641761355.2,286047002.5,N
1641761375.0,286047004.3,N
1641761375.9,286047004.3,N
1641761395.8,286047003.8,N
1641761415.6,286047001.6,N
1641761435.5,286047003.9,N
1641761455.3,286047002.0,N
1641761475.1,286047002.1,N
1641761495.9,286047002.3,N
1641761515.7,286047002.4,N
1641761535.5,286047002.8,N
1641761555.4,286047002.4,N
1641761575.2,286047002.6,N
1641761595.1,286046999.7,N
1641761596.0,286046999.7,N
1641761615.8,286047002.4,N
1641761635.6,286047002.6,N
1641761655.5,286047003.8,Y
1641761675.3,286047001.0,P
1641761695.1,286047001.1,N
1641761715.9,286046998.5,P
1641761735.7,286046998.2,N
1641761755.6,286046998.6,N
1641761775.4,286046998.4,N
1641761795.2,286046999.4,N
1641761815.1,286046998.7,N
1641761816.0,286046998.7,N
1641761835.8,286047000.4,N
1641761855.6,286047001.0,N
1641761875.5,286046998.2,N
1641761895.3,286046999.3,N
1641761915.2,286046996.7,N
1641761935.9,286046997.1,N
1641761955.7,286046997.2,N
1641761975.6,286046996.7,N
1641761995.4,286046996.9,N
